Regional Weather Roundup
Issued by NWS

Home | Current Version | Previous Version | Text Only | Print | Product List | Glossary Off
Versions: 1 2 3 4 5 6 7 8 9 10 11 12 13 14 15 16 17 18 19 20 21 22 23 24 25 26 27 28 29 30 31 32 33 34 35 36 37 38 39 40 41 42 43 44 45 46 47 48 49 50

000
ASUS43 KIND 202209
RWRIN

WEATHER ROUNDUP FOR INDIANA
NATIONAL WEATHER SERVICE INDIANAPOLIS IN
500 PM EST FRI JAN 20 2017

NOTE: "FAIR" INDICATES FEW OR NO CLOUDS BELOW 12,000 FEET WITH NO
SIGNIFICANT WEATHER AND/OR OBSTRUCTIONS TO VISIBILITY.

* - STATION DOES NOT REPORT WEATHER SUCH AS PRECIPITATION OR FOG.

+ - STATION NOT QUALITY CONTROLLED BY THE NATIONAL WEATHER SERVICE.
    USE DATA WITH CAUTION...ESPECIALLY DEWPOINT AND RELATIVE
    HUMIDITY OBSERVATIONS.

INZ001>003-010>013-019-020-202300-
NORTHWEST INDIANA

CITY           SKY/WX    TMP DP  RH WIND       PRES   REMARKS
GARY /AIRPORT/ CLOUDY    45  43  93 CALM      29.65R FOG
KNOX *+        CLOUDY    45  39  81 CALM      29.66S
LA PORTE +     FOG       43  43 100 CALM      29.66S VSB 1/2
MICHIGAN CITY+ CLOUDY    43  43 100 CALM      29.67R FOG
MONTICELLO +   CLOUDY    49  46  91 S5        29.67R
RENSSELAER +   CLOUDY    48  46  93 S5        29.66R
VALPARAISO     FOG       46  45  96 SE5       29.64F VSB 3/4

$$

LMZ046-743>745-202300-
SOUTHERN LAKE MICHIGAN

STATION/POSITION TIME  TEMP    WIND        PRES    WAVE
                       AIR SEA DIR/SP/G            HT
                 (UTC) (F)     (DEG/KT/KT) (MB)    (FT)
BURNS HARBOR     2140   36      80/  5/  6 1004.7R
MICHIGAN CITY    2140   38      40/  3/  3   N/A

$$

INZ004-005-014>016-021>024-202300-
NORTH CENTRAL INDIANA

CITY           SKY/WX    TMP DP  RH WIND       PRES   REMARKS
ELKHART        FOG       41  41 100 CALM      29.67R VSB 1/2
GOSHEN         CLOUDY    45  42  89 SW7       29.67R FOG
LOGANSPORT +   CLOUDY    46  46 100 S5        29.69R
PERU/GRISSOM   CLOUDY    49  49 100 W3        29.67R
ROCHESTER +    CLOUDY    50  50 100 CALM      29.68R
SOUTH BEND     FOG       42  42 100 SW3       29.68R VSB 1/2
WARSAW +       CLOUDY    45  43  93 CALM      29.68R FOG

$$

INZ006>009-017-018-025>027-202300-
NORTHEAST INDIANA

CITY           SKY/WX    TMP DP  RH WIND       PRES   REMARKS
ANGOLA *+      CLOUDY    45  36  70 SW3       29.68R
AUBURN +       CLOUDY    46  45  93 CALM      29.69R FOG
FORT WAYNE     CLOUDY    50  46  86 SW7       29.68R
HUNTINGTON +   CLOUDY    49  47  94 W8        29.68R
KENDALLVILLE + FOG       45  45 100 SW6       29.68R VSB 1

$$

INZ028-029-035-036-043>045-051>053-202300-
WEST CENTRAL INDIANA

CITY           SKY/WX    TMP DP  RH WIND       PRES   REMARKS
CRAWFORDSVL +  CLOUDY    49  49 100 SW6       29.68R
GREENCASTLE +  CLOUDY    50  48  93 SE5       29.68S
LAFAYETTE      CLOUDY    50  49  96 SW3       29.67R
TERRE HAUTE    CLOUDY    53  48  83 SE6       29.66R

$$

INZ030>032-037>040-046>048-054>057-064-065-202300-
CENTRAL INDIANA

CITY           SKY/WX    TMP DP  RH WIND       PRES   REMARKS
CP ATTERBURY + CLOUDY    54  46  76 S3        29.70R
COLUMBUS       MOCLDY    55  50  82 S7        29.70R
FISHERS *+     CLOUDY    52  48  87 SW7       29.70R
FRANKFORT +    CLOUDY    53  50  90 SW6       29.70R
GREENWOOD *+   CLOUDY    55  49  82 SW3       29.70R
INDIANAPOLIS   CLOUDY    53  47  79 S7        29.69R
-EAGLE CREEK   CLOUDY    53  46  77 S5        29.68R
KOKOMO +       CLOUDY    50  48  93 SW5       29.70R
MARION +       CLOUDY    50  48  93 W5        29.69R
MT COMFORT *+  CLOUDY    54  46  76 SW9       29.70R
SHELBYVILLE    CLOUDY    55  47  74 SW8       29.69R
ZIONSVILLE +   CLOUDY    51  47  84 SW16      29.70R

$$

INZ033-034-041-042-049-050-058-059-202300-
EAST CENTRAL INDIANA

CITY           SKY/WX    TMP DP  RH WIND       PRES   REMARKS
MUNCIE         CLOUDY    55  47  74 SW6       29.68R

$$

INZ060-061-067>069-081>083-085>088-202300-
SOUTHWEST INDIANA

CITY           SKY/WX    TMP DP  RH WIND       PRES   REMARKS
EVANSVILLE     MOCLDY    61  51  70 S6        29.67F
HUNTINGBURG *+ CLOUDY    60  52  74 S12       29.69S
WASHINGTON +   CLOUDY    57  50  76 S7        29.67S

$$

INZ062-063-066-070>080-084-089>092-202300-
SOUTH CENTRAL AND SOUTHEAST INDIANA

CITY           SKY/WX    TMP DP  RH WIND       PRES   REMARKS
BLOOMINGTON    CLOUDY    55  48  77 S5        29.69R
MADISON *+     CLOUDY    59  50  72 S7        29.73R
NORTH VERNON + CLOUDY    57  50  77 SW7       29.71R
SEYMOUR +      MOCLDY    59  50  72 S6        29.70R

$$




USA.gov is the U.S. government's official web portal to all federal, state and local government web resources and services.